Tracking 30703 objects as of 13-Jun-2025
HD Live streaming from Space Station
objects crossing your sky now

FENGYUN 1C DEB

Track FENGYUN 1C DEB now!
10-day predictions


NORAD ID: 30017
Int'l Code: 1999-025MS
Perigee: 543.1 km
Apogee: 853.0 km
Inclination: 98.8 °
Period: 98.6 minutes
Semi major axis: 7069 km
RCS: 0.0357 m2 (small)
Launch date: May 10, 1999
Source: People's Republic of China (PRC)
Launch site: Taiyaun Space Center, China (TSC)

Note: This is SATELLITE DEBRIS
Your satellite tracking list
Your tracking list is empty




NASA's NSSDC Master Catalog

Two Line Element Set (TLE):
1 30017U 99025MS  25163.05481450  .00000888  00000-0  13975-3 0  9992
2 30017  98.7756 196.7026 0219207  20.6728 340.3169 14.60693042977769
Source of the keplerian elements: AFSPC